Flag for Tonga Weather past 2 weeks in Nukualofa, Tonga

Now
75 °F

Passing clouds.


Feels Like: 75 °F
Forecast: 74 / 83 °F
Wind: 8 mph from Southeast

Location: Fua'Amotu

Current Time: Mar 29, 2015 at 10:23:57 PM

Latest Report: Mar 29, 2015 at 10:00 PM


Visibility: N/A

Pressure: 29.98 "Hg

Humidity: 83%

Dew point: 70 °F

Location of NukualofaLocation

Historic Weather in Nukualofa — Graph

°F

Nukualofa temperature yesterday

Maximum temperature yesterday: 81 °F (at 11:00 AM)
Minimum temperature yesterday: 75 °F (at 6:00 AM)
Average temperature yesterday: 78 °F

Past Weeks' High & Low Weather Summary

 TemperatureHumidityPressure
High90 °F (Mar 16, 2:00 PM)100% (Mar 20, 9:00 AM)29.98 "Hg (Mar 20, 9:00 AM)
Low73 °F (Mar 20, 9:00 PM)51% (Mar 28, 4:00 PM)29.47 "Hg (Mar 22, 4:00 AM)
Average80 °F82%29.78 "Hg
* Reported Mar 14 9:00 PM — Mar 29 9:00 PM, Nukualofa, Weather by CustomWeather, © 2015

Note: Actual official high and low records may vary slightly from our data, if they occured in-between our weather recording intervals... More about our weather records

Advertising

Nukualofa weather history for previous 24 hours

 ConditionsComfort  
Time TempWeatherWind HumidityBarometerVisibility
9:00 PM
Sun, Mar 29
75 °FPassing clouds.3 mph83%29.98 "HgN/A
8:00 PM77 °FPassing clouds.7 mph79%29.95 "HgN/A
7:00 PM77 °FPassing clouds.5 mph74%29.92 "HgN/A
6:00 PM79 °FPassing clouds.9 mph74%29.89 "HgN/A
5:00 PM82 °FScattered clouds.8 mph62%29.89 "HgN/A
4:00 PM82 °FPassing clouds.9 mph58%29.89 "HgN/A
3:00 PM82 °FPassing clouds.10 mph62%29.92 "HgN/A
2:00 PM82 °FPassing clouds.12 mph58%29.92 "HgN/A
1:00 PM82 °FPassing clouds.7 mph62%29.92 "HgN/A
12:00 PM81 °FPassing clouds.8 mph62%29.95 "HgN/A
11:00 AM81 °FPassing clouds.10 mph62%29.95 "HgN/A
10:00 AM81 °FPassing clouds.12 mph62%29.98 "HgN/A
9:00 AM77 °FPassing clouds.No wind69%29.95 "HgN/A
8:00 AM75 °FPassing clouds.No wind69%29.95 "HgN/A
7:00 AM73 °FPassing clouds.No wind69%29.92 "HgN/A
6:00 AM73 °FPassing clouds.5 mph69%29.92 "HgN/A
5:00 AM73 °FPassing clouds.6 mph69%29.89 "HgN/A
4:00 AM75 °FPassing clouds.3 mph65%29.89 "HgN/A
3:00 AM75 °FPassing clouds.7 mph69%29.89 "HgN/A
2:00 AM77 °FPassing clouds.3 mph69%29.92 "HgN/A
1:00 AM75 °FPassing clouds.2 mph74%29.95 "HgN/A
12:00 AM77 °FPassing clouds.8 mph69%29.92 "HgN/A
11:00 PM
Sat, Mar 28
75 °FPassing clouds.No wind69%29.92 "HgN/A
10:00 PM77 °FPassing clouds.7 mph65%29.92 "HgN/A
Weather by CustomWeather, © 2015

See weather overviewHow to use our weather pages